Year,Month,Day,Hour,Minute,Value (Times are PST for barometer in hPa)
2023,01,05,00,00,971.66
2023,01,05,00,01,979.45
2023,01,05,00,02,979.45
2023,01,05,00,03,979.45
2023,01,05,00,04,979.45
2023,01,05,00,05,980.01
2023,01,05,00,06,981.68
2023,01,05,00,07,981.68
2023,01,05,00,08,981.68
2023,01,05,00,09,981.68
2023,01,05,00,10,981.68
2023,01,05,00,11,981.68
2023,01,05,00,12,983.95
2023,01,05,00,13,990.76
2023,01,05,00,14,991.71
2023,01,05,00,15,995.39
2023,01,05,00,16,995.06
2023,01,05,00,17,995.06
2023,01,05,00,18,994.94
2023,01,05,00,19,994.48
2023,01,05,00,20,994.48
2023,01,05,00,21,994.48
2023,01,05,00,22,994.48
2023,01,05,00,23,994.48
2023,01,05,00,24,994.48
2023,01,05,00,25,994.48
2023,01,05,00,26,995.01
2023,01,05,00,27,996.59
2023,01,05,00,28,996.55
2023,01,05,00,29,996.55
2023,01,05,00,30,996.55
2023,01,05,00,31,993.12
2023,01,05,00,32,982.83
2023,01,05,00,33,982.83
2023,01,05,00,34,982.83
2023,01,05,00,35,982.83
2023,01,05,00,36,982.83
2023,01,05,00,37,982.83
2023,01,05,00,38,982.83
2023,01,05,00,39,982.83
2023,01,05,00,40,982.83
2023,01,05,00,41,982.83
2023,01,05,00,42,982.83
2023,01,05,00,43,982.83
2023,01,05,00,44,982.83
2023,01,05,00,45,982.83
2023,01,05,00,46,982.83
2023,01,05,00,47,982.83
2023,01,05,00,48,982.83
2023,01,05,00,49,982.54
2023,01,05,00,50,981.38
2023,01,05,00,51,981.38
2023,01,05,00,52,981.96
2023,01,05,00,53,983.68
2023,01,05,00,54,983.27
2023,01,05,00,55,981.94
2023,01,05,00,56,981.71
2023,01,05,00,57,981.71
2023,01,05,00,58,981.71
2023,01,05,00,59,981.71
2023,01,05,01,00,981.71
2023,01,05,01,01,981.71
2023,01,05,01,02,981.71
2023,01,05,01,03,981.71
2023,01,05,01,04,981.71
2023,01,05,01,05,981.71
2023,01,05,01,06,981.71
2023,01,05,01,07,981.71
2023,01,05,01,08,981.71
2023,01,05,01,09,981.71
2023,01,05,01,10,981.26
2023,01,05,01,11,979.89
2023,01,05,01,12,979.55
2023,01,05,01,13,978.53
2023,01,05,01,14,978.53
2023,01,05,01,15,978.53
2023,01,05,01,16,978.53
2023,01,05,01,17,979.60
2023,01,05,01,18,982.80
2023,01,05,01,19,982.80
2023,01,05,01,20,981.74
2023,01,05,01,21,977.52
2023,01,05,01,22,976.90
2023,01,05,01,23,975.04
2023,01,05,01,24,975.04
2023,01,05,01,25,975.04
2023,01,05,01,26,975.04
2023,01,05,01,27,975.58
2023,01,05,01,28,977.72
2023,01,05,01,29,977.72
2023,01,05,01,30,977.72
2023,01,05,01,31,977.72
2023,01,05,01,32,977.72
2023,01,05,01,33,977.72
2023,01,05,01,34,977.72
2023,01,05,01,35,977.72
2023,01,05,01,36,977.72
2023,01,05,01,37,977.72
2023,01,05,01,38,977.72
2023,01,05,01,39,977.72
2023,01,05,01,40,977.72
2023,01,05,01,41,977.72
2023,01,05,01,42,977.72
2023,01,05,01,43,977.72
2023,01,05,01,44,977.72
2023,01,05,01,45,977.72
2023,01,05,01,46,977.72
2023,01,05,01,47,977.72
2023,01,05,01,48,977.72
2023,01,05,01,49,979.28
2023,01,05,01,50,985.13
2023,01,05,01,51,985.13
2023,01,05,01,52,985.13
2023,01,05,01,53,985.13
2023,01,05,01,54,985.13
2023,01,05,01,55,985.13
2023,01,05,01,56,985.13
2023,01,05,01,57,985.13
2023,01,05,01,58,985.13
2023,01,05,01,59,985.13
2023,01,05,02,00,985.13
2023,01,05,02,01,987.19
2023,01,05,02,02,993.36
2023,01,05,02,03,993.36
2023,01,05,02,04,993.36
2023,01,05,02,05,993.36
2023,01,05,02,06,993.36
2023,01,05,02,07,993.81
2023,01,05,02,08,995.16
2023,01,05,02,09,995.16
2023,01,05,02,10,995.16
2023,01,05,02,11,995.16
2023,01,05,02,12,995.16
2023,01,05,02,13,995.16
2023,01,05,02,14,995.16
2023,01,05,02,15,995.16
2023,01,05,02,16,995.16
2023,01,05,02,17,995.16
2023,01,05,02,18,995.16
2023,01,05,02,19,995.16
2023,01,05,02,20,995.16
2023,01,05,02,21,995.16
2023,01,05,02,22,995.16
2023,01,05,02,23,993.00
2023,01,05,02,24,986.52
2023,01,05,02,25,986.52
2023,01,05,02,26,986.52
2023,01,05,02,27,986.52
2023,01,05,02,28,986.52
2023,01,05,02,29,986.52
2023,01,05,02,30,986.52
2023,01,05,02,31,986.49
2023,01,05,02,32,986.42
2023,01,05,02,33,986.42
2023,01,05,02,34,987.99
2023,01,05,02,35,992.72
2023,01,05,02,36,992.72
2023,01,05,02,37,992.72
2023,01,05,02,38,992.72
2023,01,05,02,39,992.72
2023,01,05,02,40,992.72
2023,01,05,02,41,992.72
2023,01,05,02,42,992.72
2023,01,05,02,43,992.72
2023,01,05,02,44,992.72
2023,01,05,02,45,992.72
2023,01,05,02,46,992.72
2023,01,05,02,47,992.72
2023,01,05,02,48,992.72
2023,01,05,02,49,992.72
2023,01,05,02,50,992.72
2023,01,05,02,51,992.72
2023,01,05,02,52,992.72
2023,01,05,02,53,992.72
2023,01,05,02,54,992.72
2023,01,05,02,55,992.72
2023,01,05,02,56,992.72
2023,01,05,02,57,992.72
2023,01,05,02,58,992.72
2023,01,05,02,59,992.72
2023,01,05,03,00,992.72
2023,01,05,03,01,992.72
2023,01,05,03,02,992.72
2023,01,05,03,03,992.72
2023,01,05,03,06,980.97
2023,01,05,03,07,980.97
2023,01,05,03,08,980.97
2023,01,05,03,09,980.97
2023,01,05,03,10,980.27
2023,01,05,03,11,979.21
2023,01,05,03,12,980.14
2023,01,05,03,13,981.88
2023,01,05,03,14,981.88
2023,01,05,03,15,982.63
2023,01,05,03,16,983.92
2023,01,05,03,17,983.92
2023,01,05,03,18,983.92
2023,01,05,03,19,983.92
2023,01,05,03,20,983.92
2023,01,05,03,21,983.92
2023,01,05,03,22,983.92
2023,01,05,03,23,983.92
2023,01,05,03,24,986.33
2023,01,05,03,25,990.83
2023,01,05,03,26,990.89
2023,01,05,03,27,990.89
2023,01,05,03,28,990.89
2023,01,05,03,29,990.89
2023,01,05,03,30,989.51
2023,01,05,03,31,987.44
2023,01,05,03,32,987.44
2023,01,05,03,33,987.44
2023,01,05,03,34,987.44
2023,01,05,03,35,987.44
2023,01,05,03,36,987.44
2023,01,05,03,37,987.44
2023,01,05,03,38,987.44
2023,01,05,03,39,987.44
2023,01,05,03,40,987.44
2023,01,05,03,41,987.44
2023,01,05,03,42,986.06
2023,01,05,03,43,983.98
2023,01,05,03,44,983.98
2023,01,05,03,45,985.44
2023,01,05,03,46,987.64
2023,01,05,03,47,987.64
2023,01,05,03,48,987.64
2023,01,05,03,49,987.64
2023,01,05,03,50,987.64
2023,01,05,03,51,987.64
2023,01,05,03,52,987.64
2023,01,05,03,53,984.67
2023,01,05,03,54,980.22
2023,01,05,03,55,980.22
2023,01,05,03,56,980.22
2023,01,05,03,57,980.05
2023,01,05,03,58,979.75
2023,01,05,03,59,979.75
2023,01,05,04,00,979.99
2023,01,05,04,01,980.39
2023,01,05,04,02,980.39
2023,01,05,04,03,980.39
2023,01,05,04,04,980.39
2023,01,05,04,05,980.39
2023,01,05,04,06,980.39
2023,01,05,04,07,980.39
2023,01,05,04,08,980.39
2023,01,05,04,09,982.97
2023,01,05,04,10,986.83
2023,01,05,04,11,986.35
2023,01,05,04,12,985.88
2023,01,05,04,13,986.32
2023,01,05,04,14,986.32
2023,01,05,04,15,986.32
2023,01,05,04,16,986.32
2023,01,05,04,17,986.32
2023,01,05,04,18,986.32
2023,01,05,04,19,986.32
2023,01,05,04,20,986.32
2023,01,05,04,21,986.32
2023,01,05,04,22,987.20
2023,01,05,04,23,988.72
2023,01,05,04,24,989.17
2023,01,05,04,25,990.01
2023,01,05,04,26,990.01
2023,01,05,04,27,990.01
2023,01,05,04,28,989.43
2023,01,05,04,29,988.55
2023,01,05,04,30,988.55
2023,01,05,04,31,988.55
2023,01,05,04,32,988.55
2023,01,05,04,33,988.55
2023,01,05,04,34,988.55
2023,01,05,04,35,985.71
2023,01,05,04,36,981.44
2023,01,05,04,37,981.44
2023,01,05,04,38,981.44
2023,01,05,04,39,981.44
2023,01,05,04,40,981.44
2023,01,05,04,41,981.44
2023,01,05,04,42,981.44
2023,01,05,04,43,981.44
2023,01,05,04,44,981.44
2023,01,05,04,45,981.44
2023,01,05,04,46,981.44
2023,01,05,04,47,981.44
2023,01,05,04,48,981.44
2023,01,05,04,49,981.44
2023,01,05,04,50,981.44
2023,01,05,04,51,981.44
2023,01,05,04,52,981.44
2023,01,05,04,53,981.44
2023,01,05,04,54,982.21
2023,01,05,04,55,983.64
2023,01,05,04,56,983.64
2023,01,05,04,57,983.64
2023,01,05,04,58,983.64
2023,01,05,04,59,983.64
2023,01,05,05,00,983.64
2023,01,05,05,01,983.64
2023,01,05,05,02,983.64
2023,01,05,05,03,983.64
2023,01,05,05,04,983.64
2023,01,05,05,05,983.64
2023,01,05,05,06,983.64
2023,01,05,05,07,983.64
2023,01,05,05,08,983.64
2023,01,05,05,09,983.64
2023,01,05,05,10,983.64
2023,01,05,05,11,983.64
2023,01,05,05,12,982.79
2023,01,05,05,13,981.21
2023,01,05,05,14,981.21
2023,01,05,05,15,981.21
2023,01,05,05,16,981.21
2023,01,05,05,17,981.21
2023,01,05,05,18,981.21
2023,01,05,05,19,981.21
2023,01,05,05,20,981.21
2023,01,05,05,21,981.21
2023,01,05,05,22,981.21
2023,01,05,05,23,973.22
2023,01,05,05,24,959.53
2023,01,05,05,25,959.53
2023,01,05,05,26,959.53
2023,01,05,05,27,958.15
2023,01,05,05,28,955.03
2023,01,05,05,29,955.03
2023,01,05,05,30,955.03
2023,01,05,05,31,955.03
2023,01,05,05,32,955.03
2023,01,05,05,33,955.03
2023,01,05,05,34,955.03
2023,01,05,05,35,955.03
2023,01,05,05,36,955.03
2023,01,05,05,37,955.03
2023,01,05,05,38,955.03
2023,01,05,05,39,955.03
2023,01,05,05,40,955.03
2023,01,05,05,41,955.03
2023,01,05,05,42,955.03
2023,01,05,05,43,955.03
2023,01,05,05,44,955.03
2023,01,05,05,45,955.03
2023,01,05,05,46,955.03
2023,01,05,05,47,966.35
2023,01,05,05,48,983.34
2023,01,05,05,49,983.34
2023,01,05,05,50,983.34
2023,01,05,05,51,983.59
2023,01,05,05,52,984.02
2023,01,05,05,53,984.02
2023,01,05,05,54,984.02
2023,01,05,05,55,984.02
2023,01,05,05,56,984.02
2023,01,05,05,57,984.02
2023,01,05,05,58,984.02
2023,01,05,05,59,984.02
2023,01,05,06,00,984.02
2023,01,05,06,01,983.83
2023,01,05,06,02,983.48
2023,01,05,06,03,983.48
2023,01,05,06,04,983.48
2023,01,05,06,05,983.48
2023,01,05,06,06,984.65
2023,01,05,06,07,986.61
2023,01,05,06,08,986.32
2023,01,05,06,09,986.32
2023,01,05,06,10,986.32
2023,01,05,06,11,986.32
2023,01,05,06,12,986.32
2023,01,05,06,13,984.91
2023,01,05,06,14,981.94
2023,01,05,06,15,981.92
2023,01,05,06,16,981.92
2023,01,05,06,17,981.92
2023,01,05,06,18,981.92
2023,01,05,06,19,981.92
2023,01,05,06,20,981.92
2023,01,05,06,21,981.92
2023,01,05,06,22,981.92
2023,01,05,06,23,983.39
2023,01,05,06,24,986.02
2023,01,05,06,25,985.71
2023,01,05,06,26,985.71
2023,01,05,06,27,985.71
2023,01,05,06,28,985.71
2023,01,05,06,29,985.71
2023,01,05,06,30,985.71
2023,01,05,06,31,985.71
2023,01,05,06,32,985.71
2023,01,05,06,33,985.71
2023,01,05,06,34,985.71
2023,01,05,06,35,985.71
2023,01,05,06,36,985.71
2023,01,05,06,37,985.71
2023,01,05,06,38,985.71
2023,01,05,06,39,985.71
2023,01,05,06,40,985.71
2023,01,05,06,41,985.71
2023,01,05,06,42,985.71
2023,01,05,06,43,985.71
2023,01,05,06,44,985.71
2023,01,05,06,45,985.71
2023,01,05,06,46,985.71
2023,01,05,06,47,985.73
2023,01,05,06,48,985.78
2023,01,05,06,49,985.78
2023,01,05,06,50,985.78
2023,01,05,06,51,985.78
2023,01,05,06,52,985.78
2023,01,05,06,53,985.78
2023,01,05,06,54,985.78
2023,01,05,06,55,985.78
2023,01,05,06,56,987.40
2023,01,05,06,57,990.42
2023,01,05,06,58,988.00
2023,01,05,06,59,983.51
2023,01,05,07,00,983.51
2023,01,05,07,01,986.26
2023,01,05,07,02,990.79
2023,01,05,07,03,990.49
2023,01,05,07,04,990.49
2023,01,05,07,05,991.59
2023,01,05,07,06,993.97
2023,01,05,07,07,993.97
2023,01,05,07,08,993.97
2023,01,05,07,09,993.97
2023,01,05,07,10,993.97
2023,01,05,07,11,993.97
2023,01,05,07,12,993.97
2023,01,05,07,13,993.97
2023,01,05,07,14,993.97
2023,01,05,07,15,993.97
2023,01,05,07,16,993.97
2023,01,05,07,17,992.96
2023,01,05,07,18,991.31
2023,01,05,07,19,991.47
2023,01,05,07,20,991.47
2023,01,05,07,21,991.47
2023,01,05,07,22,991.47
2023,01,05,07,23,991.47
2023,01,05,07,24,989.65
2023,01,05,07,25,987.03
2023,01,05,07,26,987.03
2023,01,05,07,27,987.03
2023,01,05,07,28,985.73
2023,01,05,07,29,983.26
2023,01,05,07,30,983.17
2023,01,05,07,31,983.17
2023,01,05,07,32,983.17
2023,01,05,07,33,981.27
2023,01,05,07,34,977.82
2023,01,05,07,35,977.96
2023,01,05,07,36,977.96
2023,01,05,07,37,977.98
2023,01,05,07,38,978.02
2023,01,05,07,39,978.02
2023,01,05,07,40,978.02
2023,01,05,07,41,978.02
2023,01,05,07,42,978.02
2023,01,05,07,43,978.02
2023,01,05,07,44,978.02
2023,01,05,07,45,978.02
2023,01,05,07,46,978.02
2023,01,05,07,47,978.02
2023,01,05,07,48,978.02
2023,01,05,07,49,978.02
2023,01,05,07,50,978.02
2023,01,05,07,51,978.02
2023,01,05,07,52,978.02
2023,01,05,07,53,978.02
2023,01,05,07,54,978.02
2023,01,05,07,55,981.81
2023,01,05,07,56,988.81
2023,01,05,07,57,988.45
2023,01,05,07,58,988.45
2023,01,05,07,59,988.76
2023,01,05,08,00,989.44
2023,01,05,08,01,990.47
2023,01,05,08,02,992.38
2023,01,05,08,03,992.38
2023,01,05,08,04,992.38
2023,01,05,08,05,992.38
2023,01,05,08,06,990.30
2023,01,05,08,07,986.00
2023,01,05,08,08,986.35
2023,01,05,08,09,988.09
2023,01,05,08,10,991.06
2023,01,05,08,11,991.06
2023,01,05,08,12,991.06
2023,01,05,08,13,991.06
2023,01,05,08,14,991.06
2023,01,05,08,15,991.06
2023,01,05,08,16,990.14
2023,01,05,08,17,988.11
2023,01,05,08,18,987.38
2023,01,05,08,19,985.62
2023,01,05,08,20,985.27
2023,01,05,08,21,985.27
2023,01,05,08,22,985.27
2023,01,05,08,23,985.27
2023,01,05,08,24,985.27
2023,01,05,08,25,985.27
2023,01,05,08,26,985.27
2023,01,05,08,27,985.27
2023,01,05,08,28,985.27
2023,01,05,08,29,985.27
2023,01,05,08,30,984.43
2023,01,05,08,31,982.46
2023,01,05,08,32,982.85
2023,01,05,08,33,983.41
2023,01,05,08,34,983.41
2023,01,05,08,35,983.41
2023,01,05,08,36,983.41
2023,01,05,08,37,983.04
2023,01,05,08,38,982.36
2023,01,05,08,39,982.36
2023,01,05,08,40,985.73
2023,01,05,08,41,991.98
2023,01,05,08,42,991.98
2023,01,05,08,43,991.98
2023,01,05,08,44,989.92
2023,01,05,08,45,985.35
2023,01,05,08,46,985.13
2023,01,05,08,47,985.13
2023,01,05,08,48,985.13
2023,01,05,08,49,985.13
2023,01,05,08,50,985.13
2023,01,05,08,51,985.13
2023,01,05,08,52,985.13
2023,01,05,08,53,985.13
2023,01,05,08,54,984.23
2023,01,05,08,55,982.29
2023,01,05,08,56,982.29
2023,01,05,08,57,982.29
2023,01,05,08,58,982.29
2023,01,05,08,59,982.29
2023,01,05,09,00,982.29
2023,01,05,09,01,982.34
2023,01,05,09,02,982.43
2023,01,05,09,03,982.43
2023,01,05,09,04,982.43
2023,01,05,09,05,982.43
2023,01,05,09,06,982.43
2023,01,05,09,07,982.43
2023,01,05,09,08,982.43
2023,01,05,09,09,982.43
2023,01,05,09,10,982.43
2023,01,05,09,11,979.60
2023,01,05,09,12,973.01
2023,01,05,09,13,971.19
2023,01,05,09,14,967.80
2023,01,05,09,15,968.76
2023,01,05,09,16,970.73
2023,01,05,09,17,971.08
2023,01,05,09,18,971.08
2023,01,05,09,19,971.08
2023,01,05,09,20,971.08
2023,01,05,09,21,971.08
2023,01,05,09,22,971.08
2023,01,05,09,23,971.08
2023,01,05,09,24,971.08
2023,01,05,09,25,971.08
2023,01,05,09,26,971.08
2023,01,05,09,27,971.08
2023,01,05,09,28,971.08
2023,01,05,09,29,971.08
2023,01,05,09,30,971.08
2023,01,05,09,31,971.08
2023,01,05,09,32,971.08
2023,01,05,09,33,971.08
2023,01,05,09,34,971.08
2023,01,05,09,35,971.08
2023,01,05,09,36,971.08
2023,01,05,09,37,971.08
2023,01,05,09,38,971.08
2023,01,05,09,39,971.08
2023,01,05,09,40,971.08
2023,01,05,09,41,971.08
2023,01,05,09,42,971.08
2023,01,05,09,43,973.65
2023,01,05,09,44,980.09
2023,01,05,09,45,980.09
2023,01,05,09,46,980.09
2023,01,05,09,47,980.09
2023,01,05,09,48,980.09
2023,01,05,09,49,980.09
2023,01,05,09,50,980.09
2023,01,05,09,51,980.09
2023,01,05,09,52,980.09
2023,01,05,09,53,980.09
2023,01,05,09,54,974.96
2023,01,05,09,55,962.99
2023,01,05,09,56,962.99
2023,01,05,09,57,962.99
2023,01,05,09,58,962.99
2023,01,05,09,59,962.99
2023,01,05,10,00,962.99
2023,01,05,10,01,962.99
2023,01,05,10,02,965.31
2023,01,05,10,03,970.71
2023,01,05,10,04,970.71
2023,01,05,10,05,970.71
2023,01,05,10,06,970.71
2023,01,05,10,07,970.71
2023,01,05,10,08,970.71
2023,01,05,10,09,970.71
2023,01,05,10,10,970.71
2023,01,05,10,11,970.71
2023,01,05,10,12,970.71
2023,01,05,10,13,970.71
2023,01,05,10,14,970.71
2023,01,05,10,15,970.71
2023,01,05,10,16,970.71
2023,01,05,10,17,970.71
2023,01,05,10,18,970.71
2023,01,05,10,19,970.71
2023,01,05,10,20,970.71
2023,01,05,10,21,970.71
2023,01,05,10,22,970.71
2023,01,05,10,23,970.71
2023,01,05,10,24,970.71
2023,01,05,10,25,970.71
2023,01,05,10,26,970.71
2023,01,05,10,27,970.71
2023,01,05,10,28,970.71
2023,01,05,10,29,970.71
2023,01,05,10,30,970.71
2023,01,05,10,31,970.71
2023,01,05,10,32,970.71
2023,01,05,10,33,970.71
2023,01,05,10,34,970.71
2023,01,05,10,35,970.71
2023,01,05,10,36,970.71
2023,01,05,10,37,970.71
2023,01,05,10,38,970.71
2023,01,05,10,39,970.71
2023,01,05,10,40,970.71
2023,01,05,10,41,970.71
2023,01,05,10,42,970.71
2023,01,05,10,43,970.71
2023,01,05,10,44,970.71
2023,01,05,10,45,970.71
2023,01,05,13,33,900.71
2023,01,05,13,34,900.71
2023,01,05,13,35,900.71
2023,01,05,13,36,900.71
2023,01,05,13,37,900.71
2023,01,05,13,38,900.71
2023,01,05,13,39,900.71
2023,01,05,13,40,900.71
2023,01,05,13,41,900.71
2023,01,05,13,42,900.71
2023,01,05,15,25,924.89
2023,01,05,15,26,924.89
2023,01,05,15,27,924.89
2023,01,05,15,28,924.89
2023,01,05,15,29,924.89
2023,01,05,15,30,924.89
2023,01,05,15,31,924.89
2023,01,05,15,32,934.60
2023,01,05,15,33,961.80
2023,01,05,15,34,961.80
2023,01,05,15,35,961.80
2023,01,05,15,36,961.80
2023,01,05,15,37,961.80
2023,01,05,15,38,961.80
2023,01,05,15,39,961.80
2023,01,05,15,40,961.80
2023,01,05,15,41,961.80
2023,01,05,15,42,961.80
2023,01,05,15,43,962.75
2023,01,05,15,44,965.60
2023,01,05,15,45,965.60
2023,01,05,15,46,965.60
2023,01,05,15,47,965.60
2023,01,05,15,48,965.60
2023,01,05,15,49,965.60
2023,01,05,15,50,965.60
2023,01,05,15,51,965.60
2023,01,05,15,52,965.60
2023,01,05,15,53,965.60
2023,01,05,15,54,965.60
2023,01,05,15,55,965.60
2023,01,05,15,56,965.60
2023,01,05,15,57,965.60
2023,01,05,15,58,965.60
2023,01,05,15,59,965.60
2023,01,05,16,00,965.60
2023,01,05,16,01,965.60
2023,01,05,16,02,965.60
2023,01,05,16,03,965.60
2023,01,05,16,04,965.60
2023,01,05,16,05,965.60
2023,01,05,16,06,965.60
2023,01,05,16,07,965.60
2023,01,05,16,08,965.60
2023,01,05,16,09,965.60
2023,01,05,16,10,965.60
2023,01,05,16,11,965.60
2023,01,05,16,12,965.60
2023,01,05,16,13,965.60
2023,01,05,16,14,965.60
2023,01,05,16,15,965.60
2023,01,05,16,16,965.60
2023,01,05,16,17,965.60
2023,01,05,16,18,965.60
2023,01,05,16,19,965.60
2023,01,05,16,20,965.60
2023,01,05,16,21,965.60
2023,01,05,16,22,965.60
2023,01,05,16,23,966.07
2023,01,05,16,24,967.39
2023,01,05,16,25,967.39
2023,01,05,16,26,967.39
2023,01,05,16,27,967.39
2023,01,05,16,28,965.77
2023,01,05,16,29,960.89
2023,01,05,16,30,960.89
2023,01,05,16,31,960.89
2023,01,05,16,32,960.89
2023,01,05,16,33,960.89
2023,01,05,16,34,963.69
2023,01,05,16,35,970.23
2023,01,05,16,36,970.23
2023,01,05,16,37,970.23
2023,01,05,16,38,970.23
2023,01,05,16,39,970.23
2023,01,05,16,40,970.23
2023,01,05,16,41,970.23
2023,01,05,16,42,970.23
2023,01,05,16,43,970.23
2023,01,05,16,44,970.23
2023,01,05,16,45,970.23
2023,01,05,16,46,968.04
2023,01,05,16,47,961.46
2023,01,05,16,48,961.46
2023,01,05,16,49,961.46
2023,01,05,16,50,961.46
2023,01,05,16,51,953.75
2023,01,05,16,52,930.61
2023,01,05,16,53,930.61
2023,01,05,16,54,930.61
2023,01,05,16,55,927.62
2023,01,05,16,56,918.66
2023,01,05,16,57,918.66
2023,01,05,16,58,918.66
2023,01,05,16,59,918.66
2023,01,05,17,00,918.66
2023,01,05,17,01,919.76
2023,01,05,17,02,923.06
2023,01,05,17,03,923.70
2023,01,05,17,04,926.25
2023,01,05,17,05,926.25
2023,01,05,17,06,926.25
2023,01,05,17,07,926.25
2023,01,05,17,08,926.25
2023,01,05,17,09,926.25
2023,01,05,17,10,926.25
2023,01,05,17,11,926.25
2023,01,05,17,12,926.25
2023,01,05,17,13,926.25
2023,01,05,17,14,926.25
2023,01,05,17,15,926.25
2023,01,05,17,16,926.25
2023,01,05,17,17,926.25
2023,01,05,17,18,926.25
2023,01,05,17,19,937.53
2023,01,05,17,20,971.39
2023,01,05,17,21,971.39
2023,01,05,17,22,971.39
2023,01,05,17,23,971.39
2023,01,05,17,24,971.39
2023,01,05,17,25,971.39
2023,01,05,17,26,971.39
2023,01,05,17,27,971.39
2023,01,05,17,28,971.39
2023,01,05,17,29,971.39
2023,01,05,17,30,971.39
2023,01,05,17,31,970.78
2023,01,05,17,32,968.95
2023,01,05,17,33,968.95
2023,01,05,17,34,968.95
2023,01,05,17,35,968.95
2023,01,05,17,36,968.95
2023,01,05,17,37,968.95
2023,01,05,17,38,971.75
2023,01,05,17,39,982.97
2023,01,05,17,40,982.97
2023,01,05,17,41,982.97
2023,01,05,17,42,982.97
2023,01,05,17,43,982.97
2023,01,05,17,44,982.97
2023,01,05,17,45,982.97
2023,01,05,17,46,982.97
2023,01,05,17,47,982.97
2023,01,05,17,48,982.97
2023,01,05,17,49,982.97
2023,01,05,17,50,982.97
2023,01,05,17,51,982.97
2023,01,05,17,52,981.75
2023,01,05,17,53,978.09
2023,01,05,17,54,979.12
2023,01,05,17,55,982.22
2023,01,05,17,56,982.22
2023,01,05,17,57,982.22
2023,01,05,17,58,982.22
2023,01,05,17,59,982.22
2023,01,05,18,00,982.22
2023,01,05,18,01,982.22
2023,01,05,18,02,981.97
2023,01,05,18,03,981.24
2023,01,05,18,04,981.24
2023,01,05,18,05,981.24
2023,01,05,18,06,981.24
2023,01,05,18,07,981.24
2023,01,05,18,08,981.24
2023,01,05,18,09,981.24
2023,01,05,18,10,981.24
2023,01,05,18,11,981.24
2023,01,05,18,12,981.24
2023,01,05,18,13,981.24
2023,01,05,18,14,981.24
2023,01,05,18,15,980.43
2023,01,05,18,16,977.99
2023,01,05,18,17,977.99
2023,01,05,18,18,977.99
2023,01,05,18,19,977.99
2023,01,05,18,20,978.42
2023,01,05,18,21,980.12
2023,01,05,18,22,980.12
2023,01,05,18,23,980.12
2023,01,05,18,24,980.12
2023,01,05,18,25,980.12
2023,01,05,18,26,980.12
2023,01,05,18,27,980.12
2023,01,05,18,28,980.12
2023,01,05,18,29,980.12
2023,01,05,18,30,980.12
2023,01,05,18,31,980.12
2023,01,05,18,32,980.12
2023,01,05,18,33,980.12
2023,01,05,18,34,980.12
2023,01,05,18,35,980.12
2023,01,05,18,36,980.12
2023,01,05,18,37,980.12
2023,01,05,18,38,981.26
2023,01,05,18,39,985.54
2023,01,05,18,40,985.54
2023,01,05,18,41,985.54
2023,01,05,18,42,985.54
2023,01,05,18,43,986.87
2023,01,05,18,44,991.87
2023,01,05,18,45,991.87
2023,01,05,18,46,991.87
2023,01,05,18,47,991.87
2023,01,05,18,48,991.87
2023,01,05,18,49,992.61
2023,01,05,18,50,995.54
2023,01,05,18,51,995.50
2023,01,05,18,52,995.50
2023,01,05,18,53,995.50
2023,01,05,18,54,995.50
2023,01,05,18,55,995.50
2023,01,05,18,56,995.50
2023,01,05,18,57,995.50
2023,01,05,18,58,995.50
2023,01,05,18,59,992.61
2023,01,05,19,00,981.78
2023,01,05,19,01,981.78
2023,01,05,19,02,981.78
2023,01,05,19,03,981.78
2023,01,05,19,04,981.78
2023,01,05,19,05,981.78
2023,01,05,19,06,981.78
2023,01,05,19,07,981.78
2023,01,05,19,08,981.78
2023,01,05,19,09,981.78
2023,01,05,19,10,981.78
2023,01,05,19,11,981.78
2023,01,05,19,12,981.78
2023,01,05,19,13,981.78
2023,01,05,19,14,981.78
2023,01,05,19,15,981.78
2023,01,05,19,16,981.78
2023,01,05,19,17,981.78
2023,01,05,19,18,981.78
2023,01,05,19,19,981.78
2023,01,05,19,20,981.78
2023,01,05,19,21,981.78
2023,01,05,19,22,981.78
2023,01,05,19,23,981.78
2023,01,05,19,24,981.78
2023,01,05,19,25,981.78
2023,01,05,19,26,982.57
2023,01,05,19,27,985.10
2023,01,05,19,28,985.10
2023,01,05,19,29,985.10
2023,01,05,19,30,985.10
2023,01,05,19,31,985.10
2023,01,05,19,32,985.10
2023,01,05,19,33,985.65
2023,01,05,19,34,987.71
2023,01,05,19,35,987.71
2023,01,05,19,36,987.71
2023,01,05,19,37,987.71
2023,01,05,19,38,987.71
2023,01,05,19,39,988.66
2023,01,05,19,40,991.53
2023,01,05,19,41,991.53
2023,01,05,19,42,991.53
2023,01,05,19,43,991.53
2023,01,05,19,44,991.53
2023,01,05,19,45,991.53
2023,01,05,19,46,991.53
2023,01,05,19,47,991.89
2023,01,05,19,48,993.26
2023,01,05,19,49,993.26
2023,01,05,19,50,993.26
2023,01,05,19,51,993.26
2023,01,05,19,52,992.75
2023,01,05,19,53,990.72
2023,01,05,19,54,990.72
2023,01,05,19,55,990.72
2023,01,05,19,56,990.72
2023,01,05,19,57,990.72
2023,01,05,19,58,990.72
2023,01,05,19,59,990.72
2023,01,05,20,00,990.72
2023,01,05,20,01,990.72
2023,01,05,20,02,991.16
2023,01,05,20,03,992.55
2023,01,05,20,04,992.55
2023,01,05,20,05,992.55
2023,01,05,20,06,992.55
2023,01,05,20,07,993.06
2023,01,05,20,08,994.96
2023,01,05,20,09,994.96
2023,01,05,20,10,994.96
2023,01,05,20,11,994.96
2023,01,05,20,12,994.96
2023,01,05,20,13,994.96
2023,01,05,20,14,994.96
2023,01,05,20,15,994.96
2023,01,05,20,16,994.96
2023,01,05,20,17,994.96
2023,01,05,20,18,994.96
2023,01,05,20,19,994.96
2023,01,05,20,20,994.96
2023,01,05,20,21,994.96
2023,01,05,20,22,994.96
2023,01,05,20,23,994.96
2023,01,05,20,24,994.96
2023,01,05,20,25,994.96
2023,01,05,20,26,994.96
2023,01,05,20,27,994.96
2023,01,05,20,28,994.96
2023,01,05,20,29,994.96
2023,01,05,20,30,994.96
2023,01,05,20,31,994.96
2023,01,05,20,32,994.96
2023,01,05,20,33,994.96
2023,01,05,20,34,994.96
2023,01,05,20,35,994.96
2023,01,05,20,36,994.96
2023,01,05,20,37,992.59
2023,01,05,20,38,982.49
2023,01,05,20,39,982.49
2023,01,05,20,40,982.49
2023,01,05,20,41,982.49
2023,01,05,20,42,982.49
2023,01,05,20,43,982.49
2023,01,05,20,44,982.49
2023,01,05,20,45,982.49
2023,01,05,20,46,982.49
2023,01,05,20,47,982.49
2023,01,05,20,48,982.49
2023,01,05,20,49,986.61
2023,01,05,20,50,1002.07
2023,01,05,20,51,1002.07
2023,01,05,20,52,1002.07
2023,01,05,20,53,1002.07
2023,01,05,20,54,1002.07
2023,01,05,20,55,1002.07
2023,01,05,20,56,1000.31
2023,01,05,20,57,993.14
2023,01,05,20,58,992.65
2023,01,05,20,59,992.65
2023,01,05,21,00,992.65
2023,01,05,21,01,992.65
2023,01,05,21,02,988.18
2023,01,05,21,03,970.30
2023,01,05,21,04,970.30
2023,01,05,21,05,970.30
2023,01,05,21,06,970.30